Weather History for Waseca, MN

Change the Weather History Date:

Tuesday, April 9, 2013

  Actual Average Record
Temperature  
Mean Temperature 34 °F -  
Max Temperature 37 °F 48 °F 81 °F (1930)
Min Temperature 32 °F 29 °F 11 °F (1928)
Degree Days  
Heating Degree Days 30    
Moisture  
Dew Point 34 °F    
Average Humidity 91    
Maximum Humidity 100    
Minimum Humidity 87    
Precipitation  
Precipitation 0.77 in - - ()
Sea Level Pressure  
Sea Level Pressure 29.98 in    
Wind  
Wind Speed 18 mph (NNE)    
Max Wind Speed 33 mph    
Max Gust Speed 41 mph    
Visibility 5 miles    
Events Rain , Snow , Thunderstorm    
Averages and records for this station are not official NWS values.
T = Trace of Precipitation, MM = Missing Value Source: NWS Daily Summary

Daily Weather History Graph

Daily Weather History Graph

Search for Another Location

Airport:

Trip Planner

Search our weather history database for the weather conditions in past years. The results will help you decide how hot, cold, wet, or windy it might be!

Date:

Astronomy

Apr. 09, 2013 Rise Set
Actual Time 6:40 AM CDT 7:51 PM CDT
Civil Twilight 6:11 AM CDT 8:21 PM CDT
Nautical Twilight 5:35 AM CDT 8:56 PM CDT
Astronomical Twilight 4:58 AM CDT 9:34 PM CDT
Moon 6:04 AM CDT (4/9) 7:27 PM CDT (4/9)
Length of Visible Light 14h 10m
Length of Day
13h 10m
Waning Crescent, 1% of the Moon is Illuminated
Apr 9
Waning Crescent
Apr 10
New
Apr 18
First Quarter
Apr 25
Full
May 2
Last Quarter

Hourly Weather History & Observations

Time (CDT) Temp. Windchill Dew Point Humidity Pressure Visibility Wind Dir Wind Speed Gust Speed Precip Events Conditions
12:16 AM 37.4 °F 29.3 °F 35.6 °F 93% 30.00 in 3.0 mi NE 12.7 mph - N/A   Light Drizzle
12:36 AM 37.4 °F 28.5 °F 35.6 °F 93% 29.99 in 3.0 mi NNE 15.0 mph 21.9 mph N/A   Overcast
12:56 AM 37.4 °F 28.2 °F 35.6 °F 93% 29.99 in 4.0 mi NE 16.1 mph 21.9 mph N/A   Overcast
1:16 AM 37.4 °F 28.9 °F 35.6 °F 93% 29.98 in 4.0 mi NE 13.8 mph 17.3 mph N/A   Overcast
1:36 AM 37.4 °F 30.3 °F 35.6 °F 93% 29.98 in 4.0 mi NE 10.4 mph 23.0 mph N/A   Overcast
1:56 AM 37.4 °F 29.3 °F 35.6 °F 93% 29.97 in 4.0 mi NE 12.7 mph 20.7 mph N/A   Overcast
2:16 AM 37.4 °F 28.5 °F 35.6 °F 93% 29.94 in 4.0 mi NE 15.0 mph 21.9 mph N/A   Overcast
2:36 AM 37.4 °F 27.8 °F 35.6 °F 93% 29.92 in 2.0 mi NE 17.3 mph 24.2 mph N/A   Overcast
2:56 AM 37.4 °F 28.9 °F 35.6 °F 93% 29.94 in 2.5 mi NE 13.8 mph 18.4 mph N/A   Overcast
3:17 AM 37.4 °F 30.3 °F 35.6 °F 93% 29.97 in 3.0 mi NE 10.4 mph 17.3 mph N/A   Overcast
3:36 AM 37.4 °F 29.8 °F 35.6 °F 93% 29.98 in 3.0 mi NE 11.5 mph 19.6 mph N/A   Overcast
3:56 AM 37.4 °F 28.5 °F 35.6 °F 93% 29.96 in 3.0 mi NNE 15.0 mph 24.2 mph N/A   Overcast
4:17 AM 37.4 °F 29.3 °F 35.6 °F 93% 29.98 in 3.0 mi NE 12.7 mph - N/A   Overcast
4:36 AM 37.4 °F 28.9 °F 35.6 °F 93% 29.98 in 2.5 mi NE 13.8 mph - N/A   Overcast
4:56 AM 37.4 °F 27.8 °F 35.6 °F 93% 29.96 in 3.0 mi NNE 17.3 mph 25.3 mph N/A Rain Light Rain
5:16 AM 35.6 °F 24.2 °F 35.6 °F 100% 29.95 in 2.0 mi NNE 21.9 mph 26.5 mph 0.01 in Rain Light Rain
5:36 AM 35.6 °F 25.5 °F 33.8 °F 93% 29.96 in 1.2 mi North 17.3 mph - 0.02 in Rain Rain
5:57 AM 35.6 °F 25.5 °F 33.8 °F 93% 29.96 in 2.0 mi NNE 17.3 mph - 0.03 in Rain Rain
6:16 AM 35.6 °F 26.2 °F 33.8 °F 93% 29.97 in 3.0 mi NNE 15.0 mph 21.9 mph 0.01 in Rain Light Rain
6:36 AM 35.6 °F 25.9 °F 33.8 °F 93% 29.96 in 5.0 mi NNE 16.1 mph 26.5 mph 0.02 in Rain Rain
6:57 AM 35.6 °F 25.5 °F 33.8 °F 93% 29.95 in 5.0 mi NNE 17.3 mph 25.3 mph 0.03 in Rain Light Rain
7:16 AM 35.6 °F 23.7 °F 33.8 °F 93% 29.95 in 5.0 mi NNE 24.2 mph 29.9 mph N/A Rain Light Rain
7:36 AM 35.6 °F 22.3 °F 33.8 °F 93% 29.93 in 7.0 mi NNE 31.1 mph 36.8 mph N/A   Light Drizzle
7:57 AM 35.6 °F 23.2 °F 33.8 °F 93% 29.92 in 4.0 mi NNE 26.5 mph 35.7 mph 0.01 in Rain Light Rain
8:16 AM 35.6 °F 23.2 °F 33.8 °F 93% 29.93 in 5.0 mi NNE 26.5 mph 33.4 mph N/A Rain Light Rain
8:36 AM 35.6 °F 24.8 °F 33.8 °F 93% 29.95 in 3.0 mi NNE 19.6 mph 31.1 mph 0.02 in Rain , Thunderstorm Light Thunderstorms and Rain
8:57 AM 35.6 °F 24.2 °F 33.8 °F 93% 29.95 in 2.5 mi NNE 21.9 mph 31.1 mph 0.05 in Rain Rain
9:16 AM 35.6 °F 24.2 °F 33.8 °F 93% 29.95 in 3.0 mi NNE 21.9 mph 29.9 mph 0.03 in Rain Rain
9:36 AM 35.6 °F 24.2 °F 33.8 °F 93% 29.96 in 2.0 mi NNE 21.9 mph 28.8 mph 0.06 in Rain , Thunderstorm Rain
9:56 AM 35.6 °F 24.5 °F 33.8 °F 93% 29.97 in 1.2 mi NNE 20.7 mph 25.3 mph 0.13 in   Overcast
10:16 AM 35.6 °F 23.7 °F 33.8 °F 93% 29.91 in 2.5 mi NNE 24.2 mph 35.7 mph 0.03 in Rain , Thunderstorm Light Thunderstorms and Rain
10:36 AM 35.6 °F 23.7 °F 33.8 °F 93% 29.94 in 5.0 mi NNE 24.2 mph 32.2 mph 0.04 in Rain Rain
10:56 AM 35.6 °F 23.7 °F 33.8 °F 93% 29.97 in 4.0 mi NNE 24.2 mph 29.9 mph 0.04 in Rain Light Rain
11:16 AM 35.6 °F 24.0 °F 33.8 °F 93% 29.98 in 1.5 mi North 23.0 mph 31.1 mph 0.02 in Snow Light Snow
11:37 AM 35.6 °F 24.0 °F 33.8 °F 93% 30.00 in 2.5 mi NNE 23.0 mph 29.9 mph 0.03 in Rain Light Rain
11:56 AM 35.6 °F 24.5 °F 33.8 °F 93% 30.00 in 2.5 mi NNE 20.7 mph 28.8 mph 0.04 in Rain Rain
12:16 PM 35.6 °F 23.7 °F 33.8 °F 93% 29.99 in 4.0 mi NNE 24.2 mph 33.4 mph N/A Rain Light Rain
12:37 PM 35.6 °F 23.0 °F 33.8 °F 93% 29.97 in 7.0 mi NNE 27.6 mph 35.7 mph N/A Rain Light Rain
12:56 PM 35.6 °F 21.9 °F 33.8 °F 93% 29.97 in 10.0 mi NNE 33.4 mph 38.0 mph N/A   Overcast
1:16 PM 35.6 °F 22.3 °F 33.8 °F 93% 29.96 in 10.0 mi NNE 31.1 mph 40.3 mph N/A   Overcast
1:37 PM 35.6 °F 22.3 °F 33.8 °F 93% 29.97 in 10.0 mi NNE 31.1 mph 36.8 mph N/A   Overcast
1:56 PM 35.6 °F 23.0 °F 33.8 °F 93% 29.97 in 10.0 mi NNE 27.6 mph 35.7 mph N/A   Overcast
2:16 PM 35.6 °F 23.4 °F 33.8 °F 93% 29.97 in 10.0 mi NNE 25.3 mph 36.8 mph N/A   Overcast
2:37 PM 37.4 °F 26.1 °F 33.8 °F 87% 29.97 in 10.0 mi NNE 24.2 mph 36.8 mph N/A   Overcast
2:56 PM 37.4 °F 26.9 °F 33.8 °F 87% 29.98 in 10.0 mi NNE 20.7 mph 32.2 mph N/A   Overcast
3:16 PM 37.4 °F 26.4 °F 33.8 °F 87% 29.98 in 10.0 mi NNE 23.0 mph 33.4 mph N/A   Overcast
3:36 PM 37.4 °F 25.6 °F 33.8 °F 87% 29.96 in 10.0 mi NNE 26.5 mph 35.7 mph N/A   Overcast
3:56 PM 37.4 °F 26.9 °F 33.8 °F 87% 29.98 in 10.0 mi NNE 20.7 mph 34.5 mph N/A   Overcast
4:17 PM 37.4 °F 26.6 °F 33.8 °F 87% 30.00 in 10.0 mi NNE 21.9 mph 29.9 mph N/A   Overcast
4:37 PM 37.4 °F 28.2 °F 33.8 °F 87% 30.03 in 10.0 mi NE 16.1 mph 25.3 mph N/A Thunderstorm Overcast
4:56 PM 37.4 °F 27.2 °F 33.8 °F 87% 30.03 in 5.0 mi NNE 19.6 mph 25.3 mph N/A Rain Light Rain
5:17 PM 37.4 °F 28.5 °F 33.8 °F 87% 30.04 in 3.0 mi NNE 15.0 mph 23.0 mph N/A Rain Rain
5:37 PM 37.4 °F 28.5 °F 33.8 °F 87% 30.03 in 3.0 mi NE 15.0 mph 20.7 mph N/A Rain Rain
5:56 PM 35.6 °F 26.6 °F 33.8 °F 93% 30.05 in 3.0 mi NNE 13.8 mph 18.4 mph N/A Thunderstorm Unknown
6:17 PM 35.6 °F 27.5 °F 33.8 °F 93% 30.03 in 3.0 mi NNE 11.5 mph - N/A   Light Drizzle
6:37 PM 35.6 °F 24.2 °F 33.8 °F 93% 30.00 in 7.0 mi NNE 21.9 mph 27.6 mph N/A   Overcast
6:56 PM 35.6 °F 24.8 °F 32.0 °F 87% 29.98 in 10.0 mi NNE 19.6 mph 29.9 mph N/A   Overcast
7:17 PM 35.6 °F 23.7 °F 32.0 °F 87% 29.97 in 10.0 mi NNE 24.2 mph 36.8 mph N/A   Overcast
7:37 PM 35.6 °F 23.4 °F 32.0 °F 87% 29.95 in 10.0 mi NNE 25.3 mph 33.4 mph N/A Rain Light Rain
7:56 PM 35.6 °F 23.2 °F 32.0 °F 87% 29.95 in 10.0 mi NNE 26.5 mph 41.4 mph N/A Rain Light Rain
8:17 PM 35.6 °F 27.1 °F 32.0 °F 87% 30.04 in 10.0 mi ENE 12.7 mph 18.4 mph N/A Rain , Thunderstorm Light Thunderstorms and Rain
8:37 PM 35.6 °F 24.2 °F 32.0 °F 87% 29.98 in 7.0 mi NNE 21.9 mph 27.6 mph 0.01 in Rain Light Rain
8:56 PM 35.6 °F 28.0 °F 32.0 °F 87% 30.03 in 10.0 mi NE 10.4 mph 21.9 mph 0.02 in Rain , Thunderstorm Light Thunderstorms and Rain
9:17 PM 35.6 °F 25.5 °F 32.0 °F 87% 30.03 in 7.0 mi NNE 17.3 mph 26.5 mph 0.01 in Rain , Thunderstorm Rain
9:57 PM 35.6 °F 24.8 °F 32.0 °F 87% 30.03 in 7.0 mi NNE 19.6 mph 25.3 mph 0.07 in Rain , Thunderstorm Rain
10:16 PM 35.6 °F 27.1 °F 32.0 °F 87% 30.08 in 2.5 mi North 12.7 mph 21.9 mph 0.05 in Rain , Thunderstorm Rain
10:37 PM 33.8 °F 26.4 °F 32.0 °F 93% 30.09 in 2.5 mi North 9.2 mph - 0.13 in Rain , Thunderstorm Light Thunderstorms and Rain
10:56 PM 33.8 °F 23.2 °F 32.0 °F 93% 30.05 in 2.0 mi NNE 17.3 mph - 0.21 in Snow , Thunderstorm Light Thunderstorms and Snow
11:16 PM 33.8 °F 23.2 °F 32.0 °F 93% 30.06 in 4.0 mi North 17.3 mph 21.9 mph 0.02 in Snow , Thunderstorm Snow
11:37 PM 32.0 °F 21.6 °F 30.2 °F 93% 30.07 in 2.5 mi NNE 15.0 mph - 0.08 in Snow , Thunderstorm Light Thunderstorms and Snow
11:56 PM 32.0 °F 21.6 °F 30.2 °F 93% 30.11 in 2.5 mi North 15.0 mph 19.6 mph 0.14 in Snow Light Snow